CO-58
1 28895U 05043F 09239.69263419 .00000059 00000-0 21906-4 0 3807
2 28895 098.0474 128.2698 0018780 122.2545 238.0475 14.59790323204162
FALCON
1 30776U 07006E 09238.76504926 .00000178 00000-0 15889-4 0 06513
2 30776 035.4342 031.1876 0000540 269.9893 090.0761 15.03289930135728
MAST
1 31126U 07012K 09238.66455084 .00000049 00000-0 21392-4 0 06725
2 31126 097.9812 290.2205 0095842 061.2880 299.7925 14.53513417125278
CAPE1
1 31130U 07012P 09238.63512453 .00000082 00000-0 29293-4 0 06816
2 31130 097.9821 288.2195 0103893 067.4997 293.7126 14.52082152124914
COMPASS
1 32787U 08021E 09239.89092465 .00000354 00000-0 51751-4 0 4477
2 32787 097.9368 303.0893 0016243 155.9540 204.2432 14.81646482 72068
AAUSAT2
1 32788U 08021F 09239.85282097 -.00000107 00000-0 -68153-5 0 4435
2 32788 097.9361 303.1219 0015905 156.7194 203.4710 14.81768401 72069
DO-64
1 32789U 08021G 09238.72670333 .00000110 00000-0 20696-4 0 04605
2 32789 097.9404 302.2129 0015889 158.5093 201.6784 14.81773706071892
CO-66
1 32791U 08021J 09239.19917808 -.00000005 00000-0 61047-5 0 4397
2 32791 097.9386 302.4365 0016254 155.7154 204.4823 14.81468695 71929
RS-30
1 32953U 08025A 09238.85966450 .00000010 00000-0 00000-0 0 03908
2 32953 082.4988 212.6614 0020160 028.2675 331.9494 12.43002981057177
TACSAT-3
1 35001U 09028A 09239.91685605 .00001392 00000-0 40785-4 0 827
2 35001 040.4555 171.6336 0025485 333.6354 026.3166 15.39074882 15403
PHARMSAT
1 35002U 09028B 09239.86702819 .00001234 00000-0 35933-4 0 801
2 35002 040.4688 171.3438 0028497 337.7160 022.2415 15.39831737 15397
HAWKSAT1
1 35003U 09028C 09239.89915178 .00002679 00000-0 69452-4 0 851
2 35003 040.4621 170.6285 0028760 340.5292 019.4433 15.40481695 15415
CP6
1 35004U 09028D 09239.96357521 .00002935 00000-0 75455-4 0 790
2 35004 040.4621 170.2400 0028297 341.3468 018.6297 15.40521633 15416
AEROCUB3
1 35005U 09028E 09239.78091622 .00002876 00000-0 74541-4 0 797
2 35005 040.4742 171.6103 0028333 337.6032 022.3547 15.40324506 15388
DRAGNSAT
1 35690U 09038B 09238.64447228 .00015274 00000-0 78463-4 0 275
2 35690 051.6455 303.5995 0003724 164.5711 195.5388 15.81475644 4295
POLLUX
1 35693U 09038E 09239.60138911 .00014243 00000-0 75181-4 0 270
2 35693 051.6418 298.7448 0004047 103.3990 256.7477 15.80951234 4410
CASTOR
1 35694U 09038F 09239.60743633 .00007866 00000-0 44211-4 0 277
2 35694 051.6428 298.7907 0004563 113.0465 247.1027 15.80405492 4415
